This is the latest recevied weather packets stored in our database for station/object G6UYG-13. If no packets are shown the sender has not sent any weather packets the latest 10 day(s).
| Time | Temp. | Humidity | Pressure | Rain* | Wind** | Luminosity | Snow |
|---|---|---|---|---|---|---|---|
| 1777572898 | 19.44° C | 30% | 1016.8 hPa | 0 mm | - | 18 W/m² | - |
| 1777572478 | 20° C | 30% | 1016.7 hPa | 0 mm | - | 18 W/m² | - |
| 1777572058 | 20° C | 30% | 1016.7 hPa | 0 mm | - | 19 W/m² | - |
| 1777571638 | 20.56° C | 29% | 1016.7 hPa | 0 mm | - | 21 W/m² | - |
| 1777571218 | 20.56° C | 29% | 1016.7 hPa | 0 mm | - | 23 W/m² | - |
| 1777570798 | 21.11° C | 29% | 1016.7 hPa | 0 mm | - | 25 W/m² | - |
| 1777570379 | 21.11° C | 27% | 1016.7 hPa | 0 mm | - | 28 W/m² | - |
| 1777569958 | 21.11° C | 28% | 1016.7 hPa | 0 mm | - | 32 W/m² | - |
| 1777569539 | 21.67° C | 29% | 1016.7 hPa | 0 mm | - | 33 W/m² | - |
| 1777569119 | 21.67° C | 30% | 1016.7 hPa | 0 mm | - | 35 W/m² | - |
| 1777568699 | 21.67° C | 28% | 1016.7 hPa | 0 mm | - | 251 W/m² | - |
| 1777568279 | 21.67° C | 28% | 1016.7 hPa | 0 mm | - | 313 W/m² | - |
| 1777567859 | 22.22° C | 29% | 1016.8 hPa | 0 mm | - | 334 W/m² | - |
| 1777567439 | 22.22° C | 29% | 1016.8 hPa | 0 mm | - | 350 W/m² | - |
| 1777567019 | 22.78° C | 28% | 1016.9 hPa | 0 mm | - | 366 W/m² | - |
| 1777566599 | 22.78° C | 28% | 1016.8 hPa | 0 mm | - | 383 W/m² | - |
| 1777566179 | 22.78° C | 28% | 1016.8 hPa | 0 mm | - | 403 W/m² | - |
| 1777565759 | 23.33° C | 29% | 1016.7 hPa | 0 mm | - | 422 W/m² | - |
| 1777565339 | 22.78° C | 29% | 1016.6 hPa | 0 mm | - | 448 W/m² | - |
| 1777564919 | 22.78° C | 28% | 1016.7 hPa | 0 mm | - | 461 W/m² | - |
| 1777564499 | 23.33° C | 27% | 1016.7 hPa | 0 mm | - | 476 W/m² | - |
| 1777564079 | 23.33° C | 28% | 1016.8 hPa | 0 mm | - | 496 W/m² | - |
| 1777563659 | 23.33° C | 28% | 1016.9 hPa | 0 mm | - | 513 W/m² | - |
| 1777563239 | 22.78° C | 29% | 1016.9 hPa | 0 mm | - | 503 W/m² | - |
| 1777562819 | 22.78° C | 29% | 1017 hPa | 0 mm | - | 541 W/m² | - |
* Rain latest hour (hover to see other rain measurements)
** Current wind speed in m/s (hover to see current wind gust speed)